sat.trackr.live / text

‹ back to catalog

ASO-S

NORAD 54029 · 2022-129A

PAYLOAD ACTIVE UNKNOWN

§ Identity

Operator
Country
PRC
Launch date
2022-10-08
Launch site
JSC
Launch vehicle
Mass (kg)
RCS (m²)

External: N2YO · Heavens-Above · Gunter

§ Orbital elements

Epoch: 2026-05-25T04:04:03.438336Z

Period
99.17 min
Inclination
98.2751°
Eccentricity
0.0014769
Mean motion
14.52048444 rev/d
Perigee alt
708.5 km
Apogee alt
729.4 km
Semi-major
7,097.1 km
B*
6.2409e-5
RAAN
150.5799°
Arg perigee
158.6288°
Mean anomaly
201.5527°
Rev number
19,208

§ Raw data

ASO-S1 54029U 22129A   26145.16948424  .00000208  00000+0  62409-4 0  99962 54029  98.2751 150.5799 0014769 158.6288 201.5527 14.52048444192083

JSON: /api/v1/satellites/54029 · /tle

For live sub-satellite position, see the globe view (requires WebGL).

§ Visibility from observer

Set your observer location to see the next 7 days of passes ≥ 10°. The values pass through the URL so the page stays shareable.

No JS? Fill the form by hand. The geolocation button needs JavaScript.

§ Radio — SatNOGS DB

ModeDescriptionDownlinkUplink
BPSK S-band telemetry 2.221 GHz
FM S-band telemetry (inactive) 2.207 GHz

2 transmitters · refreshed weekly from db.satnogs.org